Flag for Canada Weather past 2 weeks in Norfolk, Ontario, Canada

Now
77 °F

Mild.


Feels Like: 78 °F
Forecast: 61 / 81 °F
Wind: 13 mph from Southwest

Location: Delhi CS

Current Time: May 30, 2015 at 11:35:58 AM

Latest Report: May 30, 2015 at 11:00 AM


Visibility: N/A

Pressure: 29.98 "Hg

Humidity: 68%

Dew point: 65 °F

Location of NorfolkLocation

Historic Weather in Norfolk — Graph

°F

Norfolk temperature yesterday

Maximum temperature yesterday: 81 °F (at 3:00 PM)
Minimum temperature yesterday: 49 °F (at 6:00 AM)
Average temperature yesterday: 67 °F

Past Weeks' High & Low Weather Summary

 TemperatureHumidityPressure
High82 °F (May 26, 5:00 PM)100% (May 16, 6:00 AM)30.42 "Hg (May 16, 6:00 AM)
Low27 °F (May 23, 4:00 AM)16% (May 22, 5:00 PM)29.88 "Hg (May 19, 4:00 AM)
Average61 °F65%30.08 "Hg
* Reported May 15 10:00 AM — May 30 10:00 AM, Norfolk, Weather by CustomWeather, © 2015

Note: Actual official high and low records may vary slightly from our data, if they occured in-between our weather recording intervals... More about our weather records

Advertising

Norfolk weather history for previous 24 hours

 ConditionsComfort  
Time TempWeatherWind HumidityBarometerVisibility
10:00 AM
Sat, May 30
74 °FMild.12 mph71%29.98 "HgN/A
9:00 AM73 °FMild.9 mph73%29.99 "HgN/A
8:00 AM69 °FMild.7 mph81%29.98 "HgN/A
7:00 AM67 °FMild.7 mph83%29.98 "HgN/A
6:00 AM69 °FMild.6 mph79%29.97 "HgN/A
5:00 AM67 °FMild.6 mph86%29.96 "HgN/A
4:00 AM70 °FMild.7 mph81%29.96 "HgN/A
3:00 AM70 °FMild.5 mph81%29.96 "HgN/A
2:00 AM70 °FMild.5 mph85%29.97 "HgN/A
1:00 AM69 °FMild.6 mph86%29.98 "HgN/A
12:00 AM68 °FMild.3 mph90%30.00 "HgN/A
11:00 PM
Fri, May 29
67 °FMild.2 mph83%30.02 "HgN/A
10:00 PM68 °FMild.2 mph76%30.03 "HgN/A
9:00 PM70 °FMild.1 mph69%30.01 "HgN/A
8:00 PM75 °FMild.9 mph60%30.03 "HgN/A
7:00 PM80 °FWarm.7 mph50%30.02 "HgN/A
6:00 PM81 °FWarm.7 mph51%30.03 "HgN/A
5:00 PM80 °FWarm.7 mph53%30.07 "HgN/A
4:00 PM79 °FWarm.7 mph51%30.10 "HgN/A
3:00 PM81 °FWarm.6 mph42%30.11 "HgN/A
2:00 PM80 °FWarm.7 mph45%30.13 "HgN/A
1:00 PM80 °FWarm.6 mph45%30.15 "HgN/A
12:00 PM77 °FWarm.7 mph49%30.16 "HgN/A
11:00 AM75 °FMild.7 mph49%30.16 "HgN/A
Weather by CustomWeather, © 2015

See weather overviewHow to use our weather pages